Weather in Hailar

China     49°11′35″N   119°43′45″E
temp.,
°C
wind,
m/s
gust,
m/s
humid.,
%
clouds,
%
prec.,
mm/h
press.,
hPa
HPBL,
m
17 january, mon
mon1723:00−32nnw11999 0.0 10369
02:00−33nw1110015 0.0 10379
05:00−34wsw1110030 0.0 10399
08:00−34ssw1110067 0.0 10409
11:00−27wsw119359 0.0 1039120
14:00−24sw118855 0.0 1036218
17:00−30s22995 0.0 10389
20:00−33se2110065 0.0 10409
18 january, tue
tue1823:00−35ese2110064 0.0 104110
02:00−36e221009 0.0 104211
05:00−37e1110012 0.0 104310
08:00−38e1110019 0.0 10459
11:00−30nne11925 0.0 1043103
14:00−26nw12875 0.0 1041186
17:00−31w11985 0.0 10439
20:00−34sw111005 0.0 10469
19 january, wed
wed1923:00−35s211009 0.0 104710
02:00−36s2210010 0.0 104811
05:00−35sse2210059 0.0 104819
08:00−35sse2210068 0.0 104826
11:00−28s239248 0.0 1045157
14:00−24ssw23865 0.0 1042231
17:00−30s22965 0.0 104412
20:00−32sse229966 0.0 104412
20 january, thu
thu2023:00−31sse2297100 0.0 104321
02:00−34se229947 0.0 104513
05:00−35se229928 0.0 104514
08:00−33se229899 0.0 104526
11:00−26ese11895 0.0 1042104
14:00−22ne10865 0.0 1040158
17:00−27ese11965 0.0 10429
20:00−29ese2298100 0.0 104311
21 january, fri
fri2123:00−31ene1199100 0.0 10439
02:00−31e119961 0.0 10439
05:00−31e2299100 0.0 104214
08:00−26ene2295100 0.0 104050
11:00−20ene2286100 0.0 1037124
14:00−16nne228160 0.0 1034156
17:00−21nne119663 0.0 10349
20:00−24nnw11100100 0.0 10359